Home   Weather   Søgne   Past weeks

Flag for Norway Past Weather in Søgne, Norway — Yesterday and Last 2 Weeks

Now
52 °F

Cool.


Feels Like: 49 °F
Forecast: 49 / 56 °F
Wind: 9 mph from West

Location: Oksoy Fyr

Current Time: Sep 30, 2016 at 1:59:18 AM

Latest Report: Sep 30, 2016 at 1:00 AM


Visibility: N/A

Pressure: 29.41 "Hg

Humidity: 77%

Dew Point: 45 °F

Location of SøgneLocation

Past Weather in Søgne — Graph

°F

Søgne Temperature Yesterday

Maximum temperature yesterday: 63 °F (at 4:00 AM)
Minimum temperature yesterday: 53 °F (at 11:00 PM)
Average temperature yesterday: 58 °F

High & Low Weather Summary for the Past Weeks

 TemperatureHumidityPressure
High67 °F (Sep 15, 2:00 PM)96% (Sep 17, 9:00 AM)30.26 "Hg (Sep 17, 9:00 AM)
Low52 °F (Sep 27, 5:00 AM)59% (Sep 23, 3:00 PM)29.26 "Hg (Sep 29, 5:00 PM)
Average60 °F82%30.05 "Hg
* Reported Sep 15 2:00 PM — Sep 30 12:00 AM, Søgne, Weather by CustomWeather, © 2016

Note: Actual official high and low records may vary slightly from our data, if they occured in-between our weather recording intervals... More about our weather records

Advertising

Søgne Weather History for the Previous 24 Hours

Scroll right to see more
 ConditionsComfort  
Time TempWeatherWind HumidityBarometerVisibility
12:00 AM
Fri, Sep 30
52 °FCool.10 mph72%29.38 "HgN/A
11:00 PM
Thu, Sep 29
53 °FCool.12 mph72%29.35 "HgN/A
10:00 PM54 °FCool.13 mph72%29.32 "HgN/A
9:00 PM55 °FCool.15 mph73%29.29 "HgN/A
8:00 PM55 °FCool.16 mph71%29.29 "HgN/A
7:00 PM55 °FCool.16 mph75%29.29 "HgN/A
6:00 PM55 °FCool.21 mph79%29.26 "HgN/A
5:00 PM57 °FCool.21 mph72%29.26 "HgN/A
4:00 PM59 °FCool.18 mph69%29.29 "HgN/A
3:00 PM58 °FCool.20 mph76%29.29 "HgN/A
2:00 PM59 °FCool.20 mph69%29.32 "HgN/A
1:00 PM60 °FCool.18 mph67%29.32 "HgN/A
11:00 AM60 °FCool.15 mph71%29.35 "HgN/A
9:00 AM61 °FCool.15 mph79%29.38 "HgN/A
8:00 AM61 °FCool.16 mph89%29.38 "HgN/A
7:00 AM62 °FCool.15 mph90%29.41 "HgN/A
6:00 AM61 °FCool.17 mph95%29.41 "HgN/A
5:00 AM62 °FCool.15 mph94%29.44 "HgN/A
4:00 AM63 °FMild.15 mph91%29.50 "HgN/A
3:00 AM62 °FCool.13 mph92%29.57 "HgN/A
2:00 AM58 °FCool.7 mph96%29.63 "HgN/A
1:00 AM56 °FCool.6 mph94%29.70 "HgN/A
Weather by CustomWeather, © 2016

See weather overviewHow to use our weather pages